Time,TemperatureF,DewpointF,PressureIn,WindDirection,WindDirectionDegrees,WindSpeedMPH,WindSpeedGustMPH,Humidity,HourlyPrecipIn,Conditions,Clouds,dailyrainin,SoftwareType,DateUTC
2013-02-27 00:10:00,33.4,32.0,29.53,North,9,0.0,-999.0,96,-99.99,,,0.00,weatherlink.com 1.10,2013-02-27 06:10:00,
2013-02-27 00:25:00,33.5,33.0,29.54,North,360,0.0,-999.0,96,-99.99,,,0.00,weatherlink.com 1.10,2013-02-27 06:25:00,
2013-02-27 00:41:00,33.5,33.0,29.54,North,360,0.0,-999.0,96,-99.99,,,0.00,weatherlink.com 1.10,2013-02-27 06:41:00,
2013-02-27 00:55:00,33.6,33.0,29.54,North,360,0.0,-999.0,96,-99.99,,,0.00,weatherlink.com 1.10,2013-02-27 06:55:00,
2013-02-27 01:10:00,33.6,33.0,29.54,North,360,0.0,-999.0,96,-99.99,,,0.00,weatherlink.com 1.10,2013-02-27 07:10:00,
2013-02-27 01:25:00,33.6,33.0,29.54,North,355,0.0,-999.0,96,-99.99,,,0.00,weatherlink.com 1.10,2013-02-27 07:25:00,
2013-02-27 01:40:00,33.6,33.0,29.54,North,360,0.0,-999.0,96,-99.99,,,0.01,weatherlink.com 1.10,2013-02-27 07:40:00,
2013-02-27 01:55:00,33.6,32.0,29.54,North,360,0.0,-999.0,95,-99.99,,,0.01,weatherlink.com 1.10,2013-02-27 07:55:00,
2013-02-27 02:10:00,33.6,32.0,29.54,North,350,0.0,-999.0,95,-99.99,,,0.01,weatherlink.com 1.10,2013-02-27 08:10:00,
2013-02-27 02:25:00,33.6,32.0,29.54,North,355,0.0,-999.0,95,-99.99,,,0.01,weatherlink.com 1.10,2013-02-27 08:25:00,
2013-02-27 02:40:00,33.6,32.0,29.54,North,360,0.0,-999.0,95,-99.99,,,0.01,weatherlink.com 1.10,2013-02-27 08:40:00,
2013-02-27 02:55:00,33.6,32.0,29.53,NNW,346,0.0,-999.0,95,-99.99,,,0.01,weatherlink.com 1.10,2013-02-27 08:55:00,
2013-02-27 03:10:00,33.5,32.0,29.53,NNW,342,0.0,-999.0,95,-99.99,,,0.01,weatherlink.com 1.10,2013-02-27 09:10:00,
2013-02-27 03:25:00,33.5,32.0,29.54,NNW,342,0.0,-999.0,94,-99.99,,,0.01,weatherlink.com 1.10,2013-02-27 09:25:00,
2013-02-27 03:40:00,33.5,32.0,29.54,NNW,342,0.0,-999.0,94,-99.99,,,0.01,weatherlink.com 1.10,2013-02-27 09:40:00,
2013-02-27 03:55:00,33.5,32.0,29.54,NNW,337,0.0,-999.0,94,-99.99,,,0.01,weatherlink.com 1.10,2013-02-27 09:55:00,
2013-02-27 04:10:00,33.5,32.0,29.55,NNW,342,0.0,-999.0,94,-99.99,,,0.01,weatherlink.com 1.10,2013-02-27 10:10:00,
2013-02-27 04:25:00,33.4,32.0,29.55,North,351,0.0,-999.0,94,-99.99,,,0.02,weatherlink.com 1.10,2013-02-27 10:25:00,
2013-02-27 04:40:00,33.4,32.0,29.55,NNW,336,0.0,-999.0,94,-99.99,,,0.02,weatherlink.com 1.10,2013-02-27 10:40:00,
2013-02-27 04:55:00,33.4,32.0,29.56,NNW,330,0.0,-999.0,94,-99.99,,,0.02,weatherlink.com 1.10,2013-02-27 10:55:00,
2013-02-27 05:10:00,33.3,32.0,29.57,NW,321,0.0,-999.0,94,-99.99,,,0.02,weatherlink.com 1.10,2013-02-27 11:10:00,
2013-02-27 05:25:00,33.2,32.0,29.57,NW,323,0.0,-999.0,94,-99.99,,,0.02,weatherlink.com 1.10,2013-02-27 11:25:00,
2013-02-27 05:40:00,33.0,32.0,29.57,NNW,333,0.0,-999.0,94,-99.99,,,0.02,weatherlink.com 1.10,2013-02-27 11:40:00,
2013-02-27 05:55:00,32.9,31.0,29.57,NNW,333,0.0,-999.0,94,-99.99,,,0.02,weatherlink.com 1.10,2013-02-27 11:55:00,
2013-02-27 06:10:00,32.8,31.0,29.57,NNW,334,0.0,-999.0,94,-99.99,,,0.02,weatherlink.com 1.10,2013-02-27 12:10:00,
2013-02-27 06:25:00,32.8,31.0,29.57,NNW,340,0.0,-999.0,94,-99.99,,,0.02,weatherlink.com 1.10,2013-02-27 12:25:00,
2013-02-27 06:40:00,32.7,31.0,29.57,NNW,337,0.0,-999.0,94,-99.99,,,0.02,weatherlink.com 1.10,2013-02-27 12:40:00,
2013-02-27 06:55:00,32.6,31.0,29.57,NNW,346,0.0,-999.0,94,-99.99,,,0.02,weatherlink.com 1.10,2013-02-27 12:55:00,
2013-02-27 07:10:00,32.6,31.0,29.58,North,355,0.0,-999.0,94,-99.99,,,0.02,weatherlink.com 1.10,2013-02-27 13:10:00,
2013-02-27 07:25:00,32.5,31.0,29.58,NNW,344,0.0,-999.0,94,-99.99,,,0.02,weatherlink.com 1.10,2013-02-27 13:25:00,
2013-02-27 07:40:00,32.3,31.0,29.59,North,350,0.0,-999.0,94,-99.99,,,0.02,weatherlink.com 1.10,2013-02-27 13:40:00,
2013-02-27 07:55:00,32.0,31.0,29.60,NNW,344,0.0,-999.0,94,-99.99,,,0.02,weatherlink.com 1.10,2013-02-27 13:55:00,
2013-02-27 08:10:00,31.8,30.0,29.61,NNW,335,0.0,-999.0,94,-99.99,,,0.02,weatherlink.com 1.10,2013-02-27 14:10:00,
2013-02-27 08:25:00,31.6,30.0,29.61,NNW,344,0.0,-999.0,94,-99.99,,,0.02,weatherlink.com 1.10,2013-02-27 14:25:00,
2013-02-27 08:40:00,31.4,30.0,29.61,NNW,340,0.0,-999.0,94,-99.99,,,0.02,weatherlink.com 1.10,2013-02-27 14:40:00,
2013-02-27 08:55:00,31.2,30.0,29.61,NNW,335,0.0,-999.0,94,-99.99,,,0.02,weatherlink.com 1.10,2013-02-27 14:55:00,
2013-02-27 09:10:00,31.1,30.0,29.61,NW,320,0.0,-999.0,95,-99.99,,,0.02,weatherlink.com 1.10,2013-02-27 15:10:00,
2013-02-27 09:25:00,31.1,30.0,29.61,NNW,332,0.0,-999.0,94,-99.99,,,0.02,weatherlink.com 1.10,2013-02-27 15:25:00,
2013-02-27 09:40:00,31.1,30.0,29.61,NNW,335,0.0,-999.0,94,-99.99,,,0.02,weatherlink.com 1.10,2013-02-27 15:40:00,
2013-02-27 09:55:00,31.2,30.0,29.61,NNW,348,0.0,-999.0,94,-99.99,,,0.02,weatherlink.com 1.10,2013-02-27 15:55:00,
2013-02-27 10:10:00,31.4,30.0,29.61,NNW,334,0.0,-999.0,93,-99.99,,,0.03,weatherlink.com 1.10,2013-02-27 16:10:00,
2013-02-27 10:25:00,31.5,30.0,29.61,NNW,344,0.0,-999.0,92,-99.99,,,0.03,weatherlink.com 1.10,2013-02-27 16:25:00,
2013-02-27 10:40:00,31.5,30.0,29.61,NNW,333,0.0,-999.0,92,-99.99,,,0.03,weatherlink.com 1.10,2013-02-27 16:40:00,
2013-02-27 10:55:00,31.6,30.0,29.61,NNW,336,0.0,-999.0,92,-99.99,,,0.04,weatherlink.com 1.10,2013-02-27 16:55:00,
2013-02-27 11:25:00,31.8,30.0,29.61,NNW,342,0.0,-999.0,91,-99.99,,,0.04,weatherlink.com 1.10,2013-02-27 17:25:00,
2013-02-27 11:40:00,31.9,30.0,29.61,NNW,344,0.0,-999.0,91,-99.99,,,0.05,weatherlink.com 1.10,2013-02-27 17:40:00,
2013-02-27 11:55:00,32.0,30.0,29.61,NNW,329,0.0,-999.0,91,-99.99,,,0.05,weatherlink.com 1.10,2013-02-27 17:55:00,
2013-02-27 12:10:00,32.1,30.0,29.61,NNW,340,0.0,-999.0,91,-99.99,,,0.05,weatherlink.com 1.10,2013-02-27 18:10:00,
2013-02-27 12:40:00,32.3,30.0,29.61,NW,322,0.0,-999.0,91,-99.99,,,0.06,weatherlink.com 1.10,2013-02-27 18:40:00,
2013-02-27 12:55:00,32.4,30.0,29.62,NNW,327,0.0,-999.0,91,-99.99,,,0.06,weatherlink.com 1.10,2013-02-27 18:55:00,
2013-02-27 13:10:00,32.6,30.0,29.61,NW,321,0.0,-999.0,91,-99.99,,,0.06,weatherlink.com 1.10,2013-02-27 19:10:00,
2013-02-27 13:25:00,32.8,31.0,29.61,North,355,0.0,-999.0,91,-99.99,,,0.07,weatherlink.com 1.10,2013-02-27 19:25:00,
2013-02-27 13:40:00,32.9,31.0,29.62,NNW,336,0.0,-999.0,91,-99.99,,,0.08,weatherlink.com 1.10,2013-02-27 19:40:00,
2013-02-27 13:55:00,32.9,31.0,29.62,NW,321,0.0,-999.0,91,-99.99,,,0.08,weatherlink.com 1.10,2013-02-27 19:55:00,
2013-02-27 14:10:00,33.1,31.0,29.62,NNW,329,0.0,-999.0,90,-99.99,,,0.08,weatherlink.com 1.10,2013-02-27 20:10:00,
2013-02-27 14:25:00,33.2,31.0,29.63,NNW,332,0.0,-999.0,90,-99.99,,,0.09,weatherlink.com 1.10,2013-02-27 20:25:00,
2013-02-27 14:40:00,33.3,31.0,29.63,NW,319,0.0,-999.0,90,-99.99,,,0.09,weatherlink.com 1.10,2013-02-27 20:40:00,
2013-02-27 14:55:00,33.3,30.0,29.64,NW,318,0.0,-999.0,89,-99.99,,,0.10,weatherlink.com 1.10,2013-02-27 20:55:00,
2013-02-27 15:10:00,33.2,30.0,29.64,NW,319,0.0,-999.0,89,-99.99,,,0.10,weatherlink.com 1.10,2013-02-27 21:10:00,
2013-02-27 15:25:00,33.3,30.0,29.65,NNW,331,0.0,-999.0,89,-99.99,,,0.10,weatherlink.com 1.10,2013-02-27 21:25:00,
2013-02-27 15:40:00,33.2,31.0,29.65,NW,317,0.0,-999.0,90,-99.99,,,0.10,weatherlink.com 1.10,2013-02-27 21:40:00,
2013-02-27 15:55:00,33.2,31.0,29.65,NW,320,0.0,-999.0,90,-99.99,,,0.10,weatherlink.com 1.10,2013-02-27 21:55:00,
2013-02-27 16:10:00,33.1,31.0,29.65,NW,308,0.0,-999.0,90,-99.99,,,0.11,weatherlink.com 1.10,2013-02-27 22:10:00,
2013-02-27 16:25:00,33.1,31.0,29.66,NW,323,0.0,-999.0,91,-99.99,,,0.11,weatherlink.com 1.10,2013-02-27 22:25:00,
2013-02-27 16:40:00,33.1,31.0,29.66,NW,323,0.0,-999.0,91,-99.99,,,0.11,weatherlink.com 1.10,2013-02-27 22:40:00,
2013-02-27 16:55:00,33.0,31.0,29.66,NNW,332,0.0,-999.0,92,-99.99,,,0.11,weatherlink.com 1.10,2013-02-27 22:55:00,
2013-02-27 17:10:00,33.0,31.0,29.67,NW,321,0.0,-999.0,92,-99.99,,,0.11,weatherlink.com 1.10,2013-02-27 23:10:00,
2013-02-27 17:25:00,32.8,31.0,29.67,NW,319,0.0,-999.0,93,-99.99,,,0.11,weatherlink.com 1.10,2013-02-27 23:25:00,
2013-02-27 17:40:00,32.6,31.0,29.68,NNW,339,0.0,-999.0,94,-99.99,,,0.11,weatherlink.com 1.10,2013-02-27 23:40:00,
2013-02-27 17:55:00,32.6,31.0,29.68,NW,315,0.0,-999.0,94,-99.99,,,0.11,weatherlink.com 1.10,2013-02-27 23:55:00,
2013-02-27 18:10:00,32.6,31.0,29.69,NNW,331,0.0,-999.0,94,-99.99,,,0.11,weatherlink.com 1.10,2013-02-28 00:10:00,
2013-02-27 18:25:00,32.7,31.0,29.69,NW,323,0.0,-999.0,94,-99.99,,,0.11,weatherlink.com 1.10,2013-02-28 00:25:00,
2013-02-27 18:40:00,32.7,31.0,29.70,NNW,333,0.0,-999.0,94,-99.99,,,0.11,weatherlink.com 1.10,2013-02-28 00:40:00,
2013-02-27 18:55:00,32.8,31.0,29.70,NW,317,0.0,-999.0,94,-99.99,,,0.11,weatherlink.com 1.10,2013-02-28 00:55:00,
2013-02-27 19:10:00,32.8,31.0,29.70,NW,322,0.0,-999.0,94,-99.99,,,0.11,weatherlink.com 1.10,2013-02-28 01:10:00,
2013-02-27 19:25:00,32.8,31.0,29.70,NNW,332,0.0,-999.0,93,-99.99,,,0.11,weatherlink.com 1.10,2013-02-28 01:25:00,
2013-02-27 19:40:00,32.9,31.0,29.71,NNW,329,0.0,-999.0,93,-99.99,,,0.11,weatherlink.com 1.10,2013-02-28 01:40:00,
2013-02-27 19:55:00,33.2,31.0,29.71,NNW,337,0.0,-999.0,91,-99.99,,,0.11,weatherlink.com 1.10,2013-02-28 01:55:00,
2013-02-27 20:10:00,33.3,31.0,29.72,NNW,344,0.0,-999.0,91,-99.99,,,0.11,weatherlink.com 1.10,2013-02-28 02:10:00,
2013-02-27 20:25:00,33.3,31.0,29.72,NNW,344,0.0,-999.0,91,-99.99,,,0.11,weatherlink.com 1.10,2013-02-28 02:25:00,
2013-02-27 20:40:00,33.2,31.0,29.72,NNW,341,0.0,-999.0,92,-99.99,,,0.11,weatherlink.com 1.10,2013-02-28 02:40:00,
2013-02-27 20:55:00,33.0,31.0,29.72,NNW,346,0.0,-999.0,92,-99.99,,,0.11,weatherlink.com 1.10,2013-02-28 02:55:00,
2013-02-27 21:10:00,33.0,31.0,29.72,NNW,343,0.0,-999.0,93,-99.99,,,0.11,weatherlink.com 1.10,2013-02-28 03:10:00,
2013-02-27 21:25:00,32.9,31.0,29.73,North,355,0.0,-999.0,92,-99.99,,,0.11,weatherlink.com 1.10,2013-02-28 03:25:00,
2013-02-27 21:40:00,33.0,31.0,29.73,NNW,331,0.0,-999.0,93,-99.99,,,0.11,weatherlink.com 1.10,2013-02-28 03:40:00,
2013-02-27 21:55:00,32.9,31.0,29.73,NNW,341,0.0,-999.0,92,-99.99,,,0.11,weatherlink.com 1.10,2013-02-28 03:55:00,
2013-02-27 22:25:00,32.8,31.0,29.73,NNW,331,0.0,-999.0,93,-99.99,,,0.11,weatherlink.com 1.10,2013-02-28 04:25:00,
2013-02-27 22:40:00,32.9,31.0,29.73,North,355,0.0,-999.0,93,-99.99,,,0.11,weatherlink.com 1.10,2013-02-28 04:40:00,
2013-02-27 23:11:00,33.0,31.0,29.73,NNW,341,0.0,-999.0,92,-99.99,,,0.11,weatherlink.com 1.10,2013-02-28 05:11:00,
2013-02-27 23:26:00,33.1,31.0,29.74,NNW,341,0.0,-999.0,92,-99.99,,,0.11,weatherlink.com 1.10,2013-02-28 05:26:00,
2013-02-27 23:41:00,33.1,31.0,29.74,NNW,327,0.0,-999.0,92,-99.99,,,0.11,weatherlink.com 1.10,2013-02-28 05:41:00,
2013-02-27 23:56:00,33.0,31.0,29.74,NW,326,0.0,-999.0,92,-99.99,,,0.11,weatherlink.com 1.10,2013-02-28 05:56:00,